Location: Newark
(15.4211°N, 108.6697°E)
Time: 22:34:48
(UTC+00:00)

Envisat - Visible Passes

Search period start: 07 December 2019 00:00
Search period end: 17 December 2019 00:00
Orbit: 764 x 766 km, 98.1° (Epoch: 07 December)

Date Brightness Start Highest point End Pass type
(mag) Time Alt. Az. Time Alt. Az. Time Alt. Az.
07 Dec 2.9 11:00:01 10° SSE 11:05:06 86° E 11:10:11 10° N visible
08 Dec 5.8 12:04:09 10° SW 12:07:20 17° W 12:10:32 10° WNW visible
09 Dec 4.1 11:25:43 10° S 11:30:33 46° W 11:35:24 10° NNW visible
09 Dec 6.3 22:12:13 10° ENE 22:14:18 12° E 22:16:23 10° ESE visible
10 Dec 3.0 10:48:51 10° SSE 10:53:51 63° ENE 10:58:51 10° N visible
11 Dec 5.4 11:52:08 10° SSW 11:56:02 23° W 11:59:58 10° NW visible
11 Dec 5.6 22:35:39 10° NE 22:39:50 26° E 22:44:00 10° SSE visible
12 Dec 3.5 11:14:17 10° S 11:19:17 63° WSW 11:24:18 10° NNW visible
13 Dec 3.3 10:37:47 10° SSE 10:42:37 46° ENE 10:47:26 10° N visible
13 Dec 6.3 12:20:34 10° WSW 12:21:34 11° W 12:22:36 10° W visible
14 Dec 4.9 11:40:21 10° SSW 11:44:45 30° W 11:49:11 10° NW visible
14 Dec 5.9 22:24:58 10° NE 22:28:32 19° E 22:32:06 10° SE visible
15 Dec 3.0 11:02:57 10° S 11:08:01 85° WSW 11:13:06 10° NNW visible
16 Dec 6.0 12:07:28 10° SW 12:10:16 15° W 12:13:04 10° WNW visible
